ITY38P KSAN-MMMX

Flight info

Callsign ITY38P
Flight time N/A
Altitude 37000
Route BRDR7 BROWS DCT TIJ UT18 NABAS UT49 DGO UJ5 QET UT150 DARAN DARAN3A
Aircraft A359/H-SDE2E3GHIJ1J3J4J5LM1ORWXY/LB1D1

Departure

Time 2026-05-08 08:39
Airport San Diego International Airport (KSAN)

Arrival

Time N/A
Airport Mexico City Benito Juárez International Airport (MMMX)
Time Latitude Longitude Altitude Speed Heading
2026-05-08 08:20 32.73389 -117.19809 29 ft 0 kts 207°
2026-05-08 08:29 32.73396 -117.19805 28 ft 3 kts 204°
2026-05-08 08:30 32.73417 -117.19797 30 ft 3 kts 185°
2026-05-08 08:30 32.73435 -117.19798 28 ft 2 kts 160°
2026-05-08 08:30 32.73459 -117.19825 27 ft 2 kts 116°
2026-05-08 08:31 32.73463 -117.19837 29 ft 2 kts 111°
2026-05-08 08:31 32.73467 -117.19847 28 ft 0 kts 108°
2026-05-08 08:34 32.73456 -117.19809 28 ft 11 kts 107°
2026-05-08 08:34 32.73425 -117.19685 29 ft 19 kts 106°
2026-05-08 08:35 32.73386 -117.19529 29 ft 21 kts 106°
2026-05-08 08:35 32.73343 -117.19352 29 ft 23 kts 106°
2026-05-08 08:35 32.73296 -117.19159 27 ft 25 kts 106°
2026-05-08 08:35 32.73246 -117.18951 29 ft 27 kts 106°
2026-05-08 08:36 32.73193 -117.18730 29 ft 29 kts 106°
2026-05-08 08:36 32.73136 -117.18496 28 ft 30 kts 105°
2026-05-08 08:36 32.73075 -117.18249 28 ft 32 kts 106°
2026-05-08 08:36 32.73013 -117.17992 28 ft 33 kts 106°
2026-05-08 08:37 32.72954 -117.17742 28 ft 28 kts 96°
2026-05-08 08:37 32.73027 -117.17640 28 ft 16 kts 323°
2026-05-08 08:37 32.73055 -117.17716 28 ft 0 kts 285°
2026-05-08 08:38 32.73069 -117.17774 29 ft 40 kts 286°
2026-05-08 08:38 32.73240 -117.18477 29 ft 134 kts 286°
2026-05-08 08:38 32.73446 -117.19313 143 ft 176 kts 286°
2026-05-08 08:39 32.73818 -117.20774 1050 ft 192 kts 287°
2026-05-08 08:39 32.74414 -117.23008 2136 ft 233 kts 288°
2026-05-08 08:39 32.74483 -117.24977 2767 ft 250 kts 255°
2026-05-08 08:39 32.73522 -117.26733 3446 ft 264 kts 220°
2026-05-08 08:40 32.72443 -117.27427 3884 ft 271 kts 197°
2026-05-08 08:40 32.70568 -117.27440 4645 ft 275 kts 162°
2026-05-08 08:40 32.68982 -117.26226 5453 ft 274 kts 129°
2026-05-08 08:40 32.67886 -117.24376 6305 ft 276 kts 123°
2026-05-08 08:41 32.66709 -117.22561 7161 ft 278 kts 129°
2026-05-08 08:41 32.64940 -117.20353 8414 ft 279 kts 132°
2026-05-08 08:41 32.64062 -117.19192 9100 ft 279 kts 128°
2026-05-08 08:41 32.62607 -117.16689 10353 ft 281 kts 116°
2026-05-08 08:42 32.62026 -117.15283 10673 ft 293 kts 110°
2026-05-08 08:42 32.61393 -117.12898 11012 ft 314 kts 100°
2026-05-08 08:42 32.61131 -117.10253 11400 ft 331 kts 90°
2026-05-08 08:42 32.61096 -117.07479 12023 ft 341 kts 89°
2026-05-08 08:43 32.61045 -117.04646 12786 ft 347 kts 92°
2026-05-08 08:43 32.60591 -117.01819 13567 ft 354 kts 105°
2026-05-08 08:43 32.59570 -116.99124 14291 ft 362 kts 116°
2026-05-08 08:43 32.58257 -116.96556 14979 ft 368 kts 120°
2026-05-08 08:44 32.56778 -116.94045 15638 ft 374 kts 123°
2026-05-08 08:44 32.55240 -116.91588 16336 ft 379 kts 123°
2026-05-08 08:44 32.53641 -116.89074 17033 ft 384 kts 123°
2026-05-08 08:44 32.52034 -116.86528 17732 ft 388 kts 123°
2026-05-08 08:45 32.50425 -116.83947 18491 ft 391 kts 122°
2026-05-08 08:45 32.48813 -116.81330 19068 ft 396 kts 122°
2026-05-08 08:45 32.47188 -116.78672 19659 ft 401 kts 122°
2026-05-08 08:45 32.45550 -116.75978 20257 ft 406 kts 122°
2026-05-08 08:46 32.43894 -116.73250 20891 ft 410 kts 122°
2026-05-08 08:46 32.42243 -116.70533 21518 ft 415 kts 122°
2026-05-08 08:46 32.40547 -116.67750 22140 ft 419 kts 122°
2026-05-08 08:46 32.38831 -116.64935 22769 ft 424 kts 122°
2026-05-08 08:47 32.37094 -116.62087 23399 ft 429 kts 122°
2026-05-08 08:47 32.35340 -116.59213 23957 ft 433 kts 122°
2026-05-08 08:47 32.33569 -116.56315 24504 ft 437 kts 122°
2026-05-08 08:47 32.31782 -116.53394 25086 ft 439 kts 122°
2026-05-08 08:48 32.29982 -116.50454 25599 ft 443 kts 122°
2026-05-08 08:48 32.28190 -116.47528 26104 ft 447 kts 122°
2026-05-08 08:48 32.26361 -116.44541 26614 ft 451 kts 122°
2026-05-08 08:48 32.24582 -116.41473 27148 ft 454 kts 119°
2026-05-08 08:49 32.22864 -116.38331 27679 ft 456 kts 118°
2026-05-08 08:49 32.21163 -116.35150 28228 ft 460 kts 118°
2026-05-08 08:49 32.19453 -116.31948 28749 ft 463 kts 118°
2026-05-08 08:49 32.17718 -116.28722 29250 ft 467 kts 118°
2026-05-08 08:50 32.15960 -116.25485 29751 ft 470 kts 118°
2026-05-08 08:50 32.14179 -116.22232 30211 ft 474 kts 118°
2026-05-08 08:50 32.12399 -116.18994 30558 ft 479 kts 118°
2026-05-08 08:50 32.10576 -116.15687 30874 ft 484 kts 118°
2026-05-08 08:51 32.08731 -116.12346 31232 ft 487 kts 118°
2026-05-08 08:51 32.06873 -116.08987 31585 ft 491 kts 118°
2026-05-08 08:51 32.05003 -116.05608 31919 ft 494 kts 118°
2026-05-08 08:51 32.03115 -116.02198 32248 ft 498 kts 118°
2026-05-08 08:52 32.01218 -115.98774 32583 ft 500 kts 118°
2026-05-08 08:52 31.99310 -115.95332 32882 ft 504 kts 119°
2026-05-08 08:52 31.97383 -115.91861 33190 ft 507 kts 118°
2026-05-08 08:52 31.95473 -115.88421 33465 ft 510 kts 118°
2026-05-08 08:53 31.93528 -115.84922 33726 ft 514 kts 118°
2026-05-08 08:53 31.91560 -115.81382 34003 ft 517 kts 118°
2026-05-08 08:53 31.89584 -115.77837 34330 ft 518 kts 118°
2026-05-08 08:53 31.87608 -115.74302 34721 ft 516 kts 118°
2026-05-08 08:54 31.85642 -115.70784 35086 ft 514 kts 119°
2026-05-08 08:54 31.83678 -115.67272 35465 ft 513 kts 119°
2026-05-08 08:54 31.81715 -115.63765 35794 ft 513 kts 118°
2026-05-08 08:54 31.79784 -115.60320 36193 ft 511 kts 119°
2026-05-08 08:55 31.77834 -115.56840 36541 ft 510 kts 119°
2026-05-08 08:55 31.75883 -115.53360 36837 ft 509 kts 119°
2026-05-08 08:55 31.73933 -115.49883 37039 ft 511 kts 119°
2026-05-08 08:55 31.71978 -115.46398 37041 ft 510 kts 119°
2026-05-08 08:56 31.68076 -115.39455 37048 ft 509 kts 119°
2026-05-08 08:56 31.64189 -115.32559 37059 ft 510 kts 119°
2026-05-08 08:57 31.60280 -115.25636 37003 ft 509 kts 118°
2026-05-08 08:57 31.56364 -115.18722 37021 ft 509 kts 119°
2026-05-08 08:58 31.52451 -115.11815 37008 ft 509 kts 118°
2026-05-08 08:58 31.48559 -115.04960 37013 ft 509 kts 119°
2026-05-08 08:59 31.44635 -114.98065 37002 ft 508 kts 118°
2026-05-08 08:59 31.40717 -114.91190 37006 ft 507 kts 119°
2026-05-08 09:00 31.36797 -114.84320 37002 ft 508 kts 119°
2026-05-08 09:00 31.32892 -114.77490 37001 ft 509 kts 119°
2026-05-08 09:01 31.28956 -114.70616 36999 ft 509 kts 119°
2026-05-08 09:01 31.25014 -114.63748 36993 ft 509 kts 119°
2026-05-08 09:02 31.21066 -114.56881 36989 ft 510 kts 119°
2026-05-08 09:02 31.17116 -114.50018 36994 ft 514 kts 120°
2026-05-08 09:03 31.13119 -114.43091 36993 ft 515 kts 120°
2026-05-08 09:03 31.09115 -114.36164 37005 ft 515 kts 120°
2026-05-08 09:04 31.05110 -114.29256 36993 ft 514 kts 120°
2026-05-08 09:04 31.01135 -114.22406 36996 ft 513 kts 120°
2026-05-08 09:05 30.97132 -114.15510 36996 ft 514 kts 120°
2026-05-08 09:05 30.93125 -114.08621 36996 ft 514 kts 120°
2026-05-08 09:06 30.89117 -114.01745 36999 ft 512 kts 121°
2026-05-08 09:06 30.85149 -113.94954 36999 ft 510 kts 121°
2026-05-08 09:07 30.81149 -113.88114 37002 ft 513 kts 122°
2026-05-08 09:07 30.77119 -113.81238 36999 ft 515 kts 122°
2026-05-08 09:08 30.73082 -113.74361 37023 ft 515 kts 122°
2026-05-08 09:08 30.69073 -113.67546 37002 ft 512 kts 122°
2026-05-08 09:09 30.65055 -113.60726 36998 ft 512 kts 122°
2026-05-08 09:09 30.61020 -113.53885 36999 ft 516 kts 123°
2026-05-08 09:10 30.56952 -113.47003 37001 ft 517 kts 123°
2026-05-08 09:10 30.52879 -113.40125 37010 ft 517 kts 124°
2026-05-08 09:11 30.48844 -113.33323 36998 ft 514 kts 124°
2026-05-08 09:11 30.44794 -113.26506 36995 ft 514 kts 124°
2026-05-08 09:12 30.40720 -113.19661 37001 ft 518 kts 125°
2026-05-08 09:12 30.36621 -113.12786 37001 ft 519 kts 125°
2026-05-08 09:13 30.32550 -113.05967 37004 ft 517 kts 125°
2026-05-08 09:13 30.28472 -112.99149 37001 ft 514 kts 125°
2026-05-08 09:14 30.24401 -112.92355 36994 ft 514 kts 126°
2026-05-08 09:14 30.20302 -112.85528 37006 ft 519 kts 126°
2026-05-08 09:15 30.16207 -112.78719 37005 ft 520 kts 126°
2026-05-08 09:15 30.12093 -112.71884 37004 ft 516 kts 127°
2026-05-08 09:16 30.07998 -112.65096 37007 ft 515 kts 127°
2026-05-08 09:16 30.03903 -112.58321 36999 ft 515 kts 128°
2026-05-08 09:17 29.99778 -112.51510 37004 ft 519 kts 128°
2026-05-08 09:17 29.95670 -112.44734 37004 ft 519 kts 128°
2026-05-08 09:18 29.91544 -112.37938 37006 ft 516 kts 128°
2026-05-08 09:18 29.87426 -112.31169 37001 ft 515 kts 129°
2026-05-08 09:19 29.83310 -112.24415 36985 ft 516 kts 129°
2026-05-08 09:19 29.79194 -112.17675 36997 ft 519 kts 129°
2026-05-08 09:20 29.75036 -112.10876 36999 ft 519 kts 130°
2026-05-08 09:20 29.70892 -112.04107 36988 ft 516 kts 130°
2026-05-08 09:21 29.66761 -111.97372 36989 ft 515 kts 130°
2026-05-08 09:23 29.52272 -111.73832 36978 ft 515 kts 131°
2026-05-08 09:23 29.48140 -111.67143 36980 ft 513 kts 131°
2026-05-08 09:24 29.44034 -111.60511 36983 ft 513 kts 131°
2026-05-08 09:24 29.39894 -111.53835 36982 ft 514 kts 132°
2026-05-08 09:25 29.35736 -111.47148 36985 ft 515 kts 132°
2026-05-08 09:25 29.31579 -111.40461 36981 ft 515 kts 132°
2026-05-08 09:26 29.27450 -111.33827 36984 ft 515 kts 132°
2026-05-08 09:26 29.23285 -111.27146 36984 ft 515 kts 132°
2026-05-08 09:27 29.19118 -111.20476 36977 ft 516 kts 133°
2026-05-08 09:27 29.14938 -111.13799 36962 ft 516 kts 133°
2026-05-08 09:28 29.10780 -111.07178 36973 ft 514 kts 135°
2026-05-08 09:28 29.06130 -111.01117 36976 ft 505 kts 142°
2026-05-08 09:29 29.01297 -110.95319 36994 ft 504 kts 142°
2026-05-08 09:29 28.96429 -110.89566 36991 ft 503 kts 142°
2026-05-08 09:30 28.91565 -110.83817 36993 ft 504 kts 142°
2026-05-08 09:30 28.86735 -110.78100 36989 ft 503 kts 143°
2026-05-08 09:31 28.82713 -110.73337 36988 ft 501 kts 143°
2026-05-08 09:31 28.77065 -110.66661 36986 ft 500 kts 143°
2026-05-08 09:32 28.72220 -110.60963 36995 ft 500 kts 144°
2026-05-08 09:32 28.67393 -110.55339 36986 ft 501 kts 144°
2026-05-08 09:33 28.62522 -110.49682 36987 ft 500 kts 144°
2026-05-08 09:33 28.57653 -110.44045 36983 ft 499 kts 145°
2026-05-08 09:34 28.52794 -110.38418 36954 ft 498 kts 146°
2026-05-08 09:34 28.47975 -110.32841 36985 ft 498 kts 146°
2026-05-08 09:35 28.43123 -110.27230 36981 ft 498 kts 146°
2026-05-08 09:35 28.38269 -110.21626 36985 ft 498 kts 146°
2026-05-08 09:36 28.33412 -110.16026 36983 ft 497 kts 146°
2026-05-08 09:36 28.28586 -110.10482 36955 ft 497 kts 146°
2026-05-08 09:37 28.23731 -110.04898 36982 ft 496 kts 146°
2026-05-08 09:37 28.18884 -109.99328 36986 ft 496 kts 146°
2026-05-08 09:38 28.14036 -109.93757 36984 ft 497 kts 146°
2026-05-08 09:38 28.09263 -109.88157 36986 ft 497 kts 145°
2026-05-08 09:39 28.04471 -109.82508 36970 ft 497 kts 145°
2026-05-08 09:39 27.99677 -109.76881 36989 ft 496 kts 146°
2026-05-08 09:40 27.94884 -109.71283 36988 ft 495 kts 145°
2026-05-08 09:40 27.90099 -109.65699 36994 ft 494 kts 146°
2026-05-08 09:41 27.85337 -109.60156 36994 ft 495 kts 146°
2026-05-08 09:41 27.80544 -109.54583 36977 ft 494 kts 146°
2026-05-08 09:42 27.75757 -109.49011 37002 ft 493 kts 146°
2026-05-08 09:42 27.70978 -109.43451 36994 ft 493 kts 146°
2026-05-08 09:43 27.66224 -109.37948 36995 ft 492 kts 146°
2026-05-08 09:43 27.61437 -109.32429 37000 ft 492 kts 146°
2026-05-08 09:44 27.56647 -109.26915 36973 ft 491 kts 146°
2026-05-08 09:44 27.51838 -109.21433 36995 ft 491 kts 146°
2026-05-08 09:45 27.47055 -109.16006 36994 ft 492 kts 146°
2026-05-08 09:45 27.42243 -109.10537 36986 ft 491 kts 146°
2026-05-08 09:46 27.37436 -109.05076 36998 ft 491 kts 146°
2026-05-08 09:46 27.32623 -108.99625 36983 ft 490 kts 147°
2026-05-08 09:47 27.27849 -108.94222 37003 ft 490 kts 146°
2026-05-08 09:47 27.23047 -108.88782 37002 ft 490 kts 146°
2026-05-08 09:48 27.18241 -108.83351 37002 ft 490 kts 146°
2026-05-08 09:48 27.13435 -108.77930 36998 ft 490 kts 146°
2026-05-08 09:49 27.08624 -108.72508 37002 ft 490 kts 146°
2026-05-08 09:49 27.03843 -108.67118 37002 ft 491 kts 146°
2026-05-08 09:50 26.99015 -108.61697 36992 ft 491 kts 146°
2026-05-08 09:50 26.94196 -108.56293 37000 ft 490 kts 146°
2026-05-08 09:51 26.89379 -108.50890 36985 ft 490 kts 146°
2026-05-08 09:51 26.84596 -108.45517 36994 ft 490 kts 147°
2026-05-08 09:52 26.79766 -108.40132 36982 ft 491 kts 147°
2026-05-08 09:52 26.74924 -108.34737 36994 ft 491 kts 147°
2026-05-08 09:53 26.70081 -108.29339 36996 ft 492 kts 147°
2026-05-08 09:53 26.65270 -108.23981 36998 ft 491 kts 147°
2026-05-08 09:54 26.60427 -108.18592 36992 ft 493 kts 146°
2026-05-08 09:54 26.58158 -108.15661 36995 ft 504 kts 139°
2026-05-08 09:54 26.56035 -108.12525 37003 ft 507 kts 137°
2026-05-08 09:55 26.51902 -108.06128 37001 ft 508 kts 136°
2026-05-08 09:55 26.47835 -107.99729 37010 ft 509 kts 136°
2026-05-08 09:56 26.43722 -107.93287 37002 ft 509 kts 137°
2026-05-08 09:56 26.39598 -107.86872 37013 ft 508 kts 137°
2026-05-08 09:57 26.33405 -107.77268 36978 ft 508 kts 137°
2026-05-08 09:57 26.29297 -107.70933 37011 ft 508 kts 136°
2026-05-08 09:58 26.25177 -107.64538 37007 ft 507 kts 136°
2026-05-08 09:58 26.21054 -107.58155 37017 ft 508 kts 136°
2026-05-08 09:59 26.16921 -107.51784 37020 ft 507 kts 137°
2026-05-08 09:59 26.12813 -107.45462 37020 ft 508 kts 136°
2026-05-08 10:00 26.08675 -107.39094 36989 ft 507 kts 136°
2026-05-08 10:00 26.04533 -107.32739 37029 ft 508 kts 136°
2026-05-08 10:01 26.00387 -107.26381 37027 ft 508 kts 136°
2026-05-08 10:01 25.96271 -107.20071 37043 ft 507 kts 136°
2026-05-08 10:02 25.92112 -107.13733 37026 ft 508 kts 136°
2026-05-08 10:02 25.87956 -107.07378 37039 ft 508 kts 136°
2026-05-08 10:03 25.83803 -107.01016 37047 ft 510 kts 136°
2026-05-08 10:03 25.79650 -106.94661 37051 ft 512 kts 136°
2026-05-08 10:04 25.75464 -106.88256 37071 ft 513 kts 136°
2026-05-08 10:04 25.71276 -106.81855 37066 ft 513 kts 136°
2026-05-08 10:05 25.67083 -106.75464 37067 ft 512 kts 136°
2026-05-08 10:05 25.62912 -106.69117 37039 ft 512 kts 136°
2026-05-08 10:06 25.58710 -106.62736 37061 ft 513 kts 136°
2026-05-08 10:06 25.54500 -106.56351 37055 ft 514 kts 136°
2026-05-08 10:07 25.50287 -106.49955 37050 ft 514 kts 135°
2026-05-08 10:07 25.46075 -106.43571 37067 ft 514 kts 136°
2026-05-08 10:08 25.41881 -106.37232 37071 ft 514 kts 136°
2026-05-08 10:08 25.37612 -106.30906 37080 ft 514 kts 136°
2026-05-08 10:09 25.33313 -106.24592 37060 ft 514 kts 136°
2026-05-08 10:09 25.29013 -106.18272 37089 ft 514 kts 136°
2026-05-08 10:10 25.24750 -106.12005 37085 ft 514 kts 136°
2026-05-08 10:10 25.20451 -106.05695 37071 ft 514 kts 136°
2026-05-08 10:11 25.16154 -105.99396 37074 ft 514 kts 136°
2026-05-08 10:11 25.11850 -105.93095 37070 ft 514 kts 136°
2026-05-08 10:12 25.07574 -105.86843 37027 ft 514 kts 136°
2026-05-08 10:12 25.03266 -105.80551 37045 ft 514 kts 136°
2026-05-08 10:13 24.98957 -105.74248 37019 ft 515 kts 136°
2026-05-08 10:13 24.94648 -105.67951 37035 ft 514 kts 136°
2026-05-08 10:14 24.90366 -105.61723 37017 ft 514 kts 136°
2026-05-08 10:14 24.86047 -105.55447 37021 ft 514 kts 136°
2026-05-08 10:15 24.81720 -105.49167 36978 ft 515 kts 136°
2026-05-08 10:15 24.77392 -105.42878 37004 ft 516 kts 136°
2026-05-08 10:16 24.73088 -105.36626 37016 ft 516 kts 136°
2026-05-08 10:16 24.68747 -105.30360 37001 ft 514 kts 136°
2026-05-08 10:17 24.64412 -105.24100 37003 ft 515 kts 136°